GALAXY 19 (G-19)

Last updated on Fri Oct 11 2024 00:02:39 GMT+0000 (Coordinated Universal Time)

1 33376U 08045A 24284.38400969 -.00000134 00000+0 00000+0 0 9995 2 33376 0.0267 263.7110 0002768 284.1427 232.8908 1.00272611 58735
UTC large
Height (km)
Speed (km/s)
/
Latitude / Longitude
Inclination (degrees)
Orbital Period (minutes)
Azimuth
Elevation
Range (km)
Doppler Factor

Next 0 passes for location: London (51.5072 / 0.1276)

Sorry there are no passes over London.